This is the latest recevied weather packets stored in our database for station/object N7NIP. If no packets are shown the sender has not sent any weather packets the latest 10 day(s).
| Time | Temp. | Humidity | Pressure | Rain* | Wind** | Luminosity | Snow |
|---|---|---|---|---|---|---|---|
| 1777952060 | 16.67° C | 64% | 1024.2 hPa | 0 mm | - | 2 W/m² | - |
| 1777951759 | 17.22° C | 63% | 1024.3 hPa | 0 mm | - | 3 W/m² | - |
| 1777951455 | 17.22° C | 63% | 1024.1 hPa | 0 mm | - | 5 W/m² | - |
| 1777951152 | 17.22° C | 62% | 1024.1 hPa | 0 mm | - | 7 W/m² | - |
| 1777950849 | 17.22° C | 61% | 1023.9 hPa | 0 mm | - | 10 W/m² | - |
| 1777950546 | 17.78° C | 59% | 1024.1 hPa | 0 mm | - | 12 W/m² | - |
| 1777950242 | 18.33° C | 58% | 1024.1 hPa | 0 mm | - | 15 W/m² | - |
| 1777949937 | 18.33° C | 56% | 1023.9 hPa | 0 mm | - | 18 W/m² | - |
| 1777949635 | 18.89° C | 55% | 1023.8 hPa | 0 mm | - | 21 W/m² | - |
| 1777949334 | 19.44° C | 52% | 1023.7 hPa | 0 mm | - | 24 W/m² | - |
| 1777949031 | 20° C | 49% | 1023.9 hPa | 0 mm | - | 27 W/m² | - |
| 1777948728 | 20° C | 48% | 1023.9 hPa | 0 mm | - | 30 W/m² | - |
| 1777948425 | 20.56° C | 48% | 1023.9 hPa | 0 mm | - | 31 W/m² | - |
| 1777948122 | 20.56° C | 46% | 1023.8 hPa | 0 mm | - | 36 W/m² | - |
| 1777947819 | 21.11° C | 46% | 1023.9 hPa | 0 mm | - | 42 W/m² | - |
| 1777947516 | 21.11° C | 47% | 1023.7 hPa | 0 mm | - | 43 W/m² | - |
| 1777947212 | 21.67° C | 48% | 1023.7 hPa | 0 mm | - | 45 W/m² | - |
| 1777946908 | 22.22° C | 46% | 1023.7 hPa | 0 mm | - | 48 W/m² | - |
| 1777946604 | 22.78° C | 45% | 1023.7 hPa | 0 mm | - | 49 W/m² | - |
| 1777946301 | 22.78° C | 45% | 1023.7 hPa | 0 mm | - | 53 W/m² | - |
| 1777945998 | 23.33° C | 43% | 1023.6 hPa | 0 mm | - | 57 W/m² | - |
| 1777945696 | 23.89° C | 42% | 1023.5 hPa | 0 mm | - | 56 W/m² | - |
| 1777945392 | 24.44° C | 40% | 1023.7 hPa | 0 mm | - | 144 W/m² | - |
| 1777945089 | 25° C | 38% | 1023.6 hPa | 0 mm | - | 158 W/m² | - |
| 1777944786 | 25° C | 36% | 1023.7 hPa | 0 mm | - | 174 W/m² | - |
* Rain latest hour (hover to see other rain measurements)
** Current wind speed in m/s (hover to see current wind gust speed)